OPS 7034 (TRANSIT 18) (3133 NORAD) Tracking and Keplerian Element Data

This shows tracking and keplerian element data for the satellite.

Feedback or suggestion? Click here.




ElementValue
Catalog3133
NameOPS 7034 (TRANSIT 18)
Epoch Orbit52707
Epoch Day34.9361006
Epoch Year2025
RAAN272.9292
Inclination90.0222
Eccentricity0.0074118
Argument of Perigee355.269
Mean Anonmoly15.0348
Mean Motion13.51474553
Decay Rate1.74E-06
L11 03133U 68012A 25034.93610060 .00000174 00000+0 24892-3 0 9995
L22 03133 90.0222 272.9292 0074118 355.2690 15.0348 13.51474553527071



Live tracking and technical data element details for OPS 7034 (TRANSIT 18) (NORAD 3133). OPS 7034 (TRANSIT 18) can be tracked NOW for your location showing map with azimuth and elevation plus other details from your city location.







IsCatalogInMostPopularTable: catalog: 3133, numindb: 388
Update: records affected: 1



GetName: 3133 OPS 7034 (TRANSIT 18)

Hit Count: updated at: Thu, 15 May 2025 09:36:48 GMT